Imperial, NE

2:21 AM MDT on July 28, 2017 (GMT -0600)
Imperial Municipal

Weather History for KIML - January, 2014

Change the Weather History Date:

Friday, January 17, 2014

  Actual Average Record
Temperature  
Mean Temperature 34 °F 28 °F  
Max Temperature 51 °F 41 °F 67 °F (1923)
Min Temperature 17 °F 16 °F -27 °F (1930)
Degree Days  
Heating Degree Days 31 37  
Month to date heating degree days 596 629  
Cooling Degree Days 0 0  
Month to date cooling degree days 0 0  
Year to date cooling degree days 0 0  
Moisture  
Dew Point 15 °F    
Average Humidity 49    
Maximum Humidity 74    
Minimum Humidity 24    
Precipitation  
Precipitation 0.00 in 0.01 in 0.39 in (1930)
Sea Level Pressure  
Sea Level Pressure 30.14 in    
Wind  
Wind Speed 9 mph (WNW)    
Max Wind Speed 20 mph    
Max Gust Speed 24 mph    
Visibility 10 miles    
Events      
T = Trace of Precipitation, MM = Missing Value Source: NWS Daily Summary

Daily Weather History Graph

Daily Weather History Graph

Search for Another Location

Airport or City:

Trip Planner

Search our weather history database for the weather conditions in past years. The results will help you decide how hot, cold, wet, or windy it might be!

Date:

Astronomy

Jan. 17, 2014 Rise Set
Actual Time 7:06 AM MST 4:46 PM MST
Civil Twilight 6:37 AM MST 5:16 PM MST
Nautical Twilight 6:03 AM MST 5:50 PM MST
Astronomical Twilight 5:30 AM MST 6:22 PM MST
Moon 6:35 PM MST (1/17) 7:35 AM MST (1/17)
Length of Visible Light 10h 39m
Length of Day
9h 39m
Full, 98% of the Moon is Illuminated
Jan 17
Full
Jan 23
Last Quarter
Jan 30
New
Feb 6
First Quarter
Feb 14
Full

Hourly Weather History & Observations

Time (MST) Temp. Windchill Dew Point Humidity Pressure Visibility Wind Dir Wind Speed Gust Speed Precip Events Conditions
12:53 AM 23.0 °F 11.1 °F 12.0 °F 63% 30.28 in 10.0 mi NW 12.7 mph - N/A   Clear
1:53 AM 19.9 °F 10.1 °F 10.9 °F 68% 30.29 in 10.0 mi WNW 8.1 mph - N/A   Clear
2:53 AM 19.0 °F 11.1 °F 10.9 °F 71% 30.29 in 10.0 mi WNW 5.8 mph - N/A   Clear
3:53 AM 19.9 °F 10.1 °F 12.0 °F 71% 30.27 in 10.0 mi West 8.1 mph - N/A   Mostly Cloudy
4:53 AM 19.9 °F 11.1 °F 10.9 °F 68% 30.27 in 10.0 mi West 6.9 mph - N/A   Clear
5:53 AM 17.1 °F 8.7 °F 10.0 °F 74% 30.27 in 10.0 mi West 5.8 mph - N/A   Clear
6:53 AM 18.0 °F 11.1 °F 10.0 °F 71% 30.26 in 10.0 mi West 4.6 mph - N/A   Clear
7:53 AM 19.9 °F 11.1 °F 10.9 °F 68% 30.26 in 10.0 mi WSW 6.9 mph - N/A   Clear
8:53 AM 28.0 °F 20.8 °F 14.0 °F 56% 30.24 in 10.0 mi SW 6.9 mph - N/A   Clear
9:53 AM 34.0 °F 26.0 °F 15.1 °F 46% 30.21 in 10.0 mi SW 10.4 mph - N/A   Mostly Cloudy
10:53 AM 39.0 °F 33.4 °F 18.0 °F 43% 30.17 in 10.0 mi West 8.1 mph - N/A   Clear
11:53 AM 43.0 °F 37.2 °F 18.0 °F 37% 30.12 in 10.0 mi NW 10.4 mph - N/A   Mostly Cloudy
12:53 PM 46.9 °F - 18.0 °F 32% 30.07 in 10.0 mi WNW 6.9 mph - N/A   Overcast
1:53 PM 48.9 °F - 18.0 °F 29% 30.06 in 10.0 mi NW 6.9 mph - N/A   Overcast
2:53 PM 50.0 °F - 16.0 °F 26% 30.05 in 10.0 mi NW 9.2 mph - N/A   Overcast
3:53 PM 48.9 °F - 19.0 °F 31% 30.04 in 10.0 mi NW 8.1 mph - N/A   Clear
4:53 PM 45.0 °F 40.1 °F 18.0 °F 34% 30.04 in 10.0 mi WNW 9.2 mph - N/A   Clear
5:53 PM 39.0 °F 32.8 °F 18.0 °F 43% 30.05 in 10.0 mi West 9.2 mph - N/A   Clear
6:53 PM 41.0 °F 34.3 °F 17.1 °F 38% 30.04 in 10.0 mi West 11.5 mph - N/A   Clear
7:53 PM 39.9 °F 31.8 °F 15.1 °F 36% 30.05 in 10.0 mi West 15.0 mph - N/A   Clear
8:53 PM 37.0 °F 28.5 °F 15.1 °F 41% 30.03 in 10.0 mi West 13.8 mph - N/A   Clear
9:53 PM 36.0 °F 27.1 °F 16.0 °F 44% 30.02 in 10.0 mi WNW 13.8 mph 23.0 mph N/A   Clear
10:53 PM 37.0 °F 27.7 °F 17.1 °F 44% 29.99 in 10.0 mi WNW 16.1 mph - N/A   Clear
11:53 PM 36.0 °F 27.5 °F 17.1 °F 46% 29.98 in 10.0 mi WNW 12.7 mph - N/A   Clear